TAIP21 YMES-YSNW

Flight info

Callsign TAIP21
Flight time 2h 7m
Altitude 5499
Route YMCO/N0159F060 DCT YMER DCT YMRY/N0162F070
Aircraft EC35/L-SDFGRY/C

Departure

Time 2026-04-17 10:33
Airport RAAF Base East Sale (YMES)

Arrival

Time 2026-04-17 12:41
Airport Naval Air Station Nowra - HMAS Albatross (YSNW)
Time Latitude Longitude Altitude Speed Heading
2026-04-17 10:17 -38.09861 147.13177 22 ft 0 kts 188°
2026-04-17 10:29 -38.09866 147.13172 35 ft 4 kts 159°
2026-04-17 10:29 -38.09893 147.13215 30 ft 6 kts 107°
2026-04-17 10:29 -38.09897 147.13237 33 ft 1 kts 102°
2026-04-17 10:29 -38.09901 147.13240 35 ft 1 kts 102°
2026-04-17 10:30 -38.09903 147.13253 38 ft 1 kts 102°
2026-04-17 10:30 -38.09902 147.13253 42 ft 0 kts 102°
2026-04-17 10:30 -38.09903 147.13252 39 ft 0 kts 102°
2026-04-17 10:31 -38.09902 147.13252 35 ft 0 kts 102°
2026-04-17 10:31 -38.09902 147.13253 34 ft 0 kts 102°
2026-04-17 10:32 -38.09902 147.13252 31 ft 0 kts 102°
2026-04-17 10:32 -38.09901 147.13253 33 ft 0 kts 102°
2026-04-17 10:32 -38.09922 147.13305 51 ft 14 kts 101°
2026-04-17 10:32 -38.09885 147.13491 112 ft 31 kts 93°
2026-04-17 10:33 -38.09897 147.13911 245 ft 64 kts 95°
2026-04-17 10:33 -38.09934 147.14557 463 ft 81 kts 94°
2026-04-17 10:33 -38.09980 147.15325 583 ft 90 kts 95°
2026-04-17 10:33 -38.10034 147.16106 758 ft 88 kts 98°
2026-04-17 10:34 -38.10097 147.16879 933 ft 88 kts 101°
2026-04-17 10:34 -38.10169 147.17644 1110 ft 87 kts 102°
2026-04-17 10:34 -38.10250 147.18402 1273 ft 86 kts 105°
2026-04-17 10:34 -38.10341 147.19158 1457 ft 87 kts 110°
2026-04-17 10:35 -38.10443 147.19914 1651 ft 87 kts 112°
2026-04-17 10:35 -38.10554 147.20667 1828 ft 87 kts 115°
2026-04-17 10:35 -38.10643 147.21433 2003 ft 90 kts 107°
2026-04-17 10:35 -38.10615 147.22248 2185 ft 95 kts 92°
2026-04-17 10:36 -38.10475 147.23080 2321 ft 99 kts 84°
2026-04-17 10:36 -38.10323 147.23948 2422 ft 101 kts 84°
2026-04-17 10:36 -38.10171 147.24813 2465 ft 100 kts 84°
2026-04-17 10:36 -38.10012 147.25663 2482 ft 98 kts 84°
2026-04-17 10:37 -38.09854 147.26503 2490 ft 98 kts 84°
2026-04-17 10:37 -38.09699 147.27348 2494 ft 98 kts 84°
2026-04-17 10:37 -38.09541 147.28181 2496 ft 98 kts 84°
2026-04-17 10:37 -38.09377 147.29026 2494 ft 99 kts 84°
2026-04-17 10:38 -38.09218 147.29884 2498 ft 100 kts 84°
2026-04-17 10:38 -38.09057 147.30740 2497 ft 99 kts 84°
2026-04-17 10:38 -38.08895 147.31592 2498 ft 100 kts 84°
2026-04-17 10:38 -38.08739 147.32449 2498 ft 99 kts 84°
2026-04-17 10:39 -38.08580 147.33308 2496 ft 101 kts 84°
2026-04-17 10:39 -38.08425 147.34173 2497 ft 100 kts 84°
2026-04-17 10:39 -38.08270 147.35029 2493 ft 100 kts 84°
2026-04-17 10:39 -38.08106 147.35894 2498 ft 101 kts 84°
2026-04-17 10:40 -38.07942 147.36761 2498 ft 101 kts 84°
2026-04-17 10:40 -38.07781 147.37620 2497 ft 100 kts 84°
2026-04-17 10:40 -38.07623 147.38484 2503 ft 102 kts 84°
2026-04-17 10:40 -38.07454 147.39361 2496 ft 102 kts 84°
2026-04-17 10:41 -38.07280 147.40234 2494 ft 103 kts 84°
2026-04-17 10:41 -38.07105 147.41115 2494 ft 103 kts 84°
2026-04-17 10:41 -38.06931 147.41996 2493 ft 103 kts 84°
2026-04-17 10:41 -38.06760 147.42869 2493 ft 101 kts 84°
2026-04-17 10:42 -38.06596 147.43730 2491 ft 100 kts 84°
2026-04-17 10:42 -38.06435 147.44585 2491 ft 100 kts 84°
2026-04-17 10:42 -38.06271 147.45441 2492 ft 100 kts 84°
2026-04-17 10:42 -38.06107 147.46303 2489 ft 102 kts 84°
2026-04-17 10:43 -38.05936 147.47181 2490 ft 103 kts 84°
2026-04-17 10:43 -38.05766 147.48048 2491 ft 102 kts 84°
2026-04-17 10:43 -38.05603 147.48927 2491 ft 102 kts 84°
2026-04-17 10:43 -38.05441 147.49799 2484 ft 101 kts 84°
2026-04-17 10:44 -38.05279 147.50658 2486 ft 100 kts 84°
2026-04-17 10:44 -38.05116 147.51516 2489 ft 101 kts 84°
2026-04-17 10:44 -38.04944 147.52376 2489 ft 101 kts 84°
2026-04-17 10:44 -38.04767 147.53240 2490 ft 102 kts 84°
2026-04-17 10:45 -38.04591 147.54113 2490 ft 103 kts 84°
2026-04-17 10:45 -38.04417 147.54988 2489 ft 102 kts 84°
2026-04-17 10:45 -38.04242 147.56000 2473 ft 134 kts 85°
2026-04-17 10:45 -38.04075 147.57270 2494 ft 150 kts 84°
2026-04-17 10:46 -38.03904 147.58547 2486 ft 147 kts 85°
2026-04-17 10:46 -38.03701 147.59847 2483 ft 153 kts 79°
2026-04-17 10:46 -38.03394 147.61145 2482 ft 154 kts 76°
2026-04-17 10:46 -38.03063 147.62439 2484 ft 154 kts 76°
2026-04-17 10:47 -38.02728 147.63728 2487 ft 153 kts 75°
2026-04-17 10:47 -38.02399 147.64997 2487 ft 151 kts 76°
2026-04-17 10:47 -38.02068 147.66262 2493 ft 152 kts 76°
2026-04-17 10:47 -38.01731 147.67532 2493 ft 152 kts 76°
2026-04-17 10:48 -38.01397 147.68802 2489 ft 152 kts 76°
2026-04-17 10:48 -38.01066 147.70084 2489 ft 154 kts 76°
2026-04-17 10:48 -38.00725 147.71373 2488 ft 153 kts 76°
2026-04-17 10:48 -38.00382 147.72652 2487 ft 153 kts 76°
2026-04-17 10:49 -38.00040 147.73929 2485 ft 152 kts 76°
2026-04-17 10:49 -37.99702 147.75202 2482 ft 153 kts 76°
2026-04-17 10:49 -37.99363 147.76482 2485 ft 152 kts 76°
2026-04-17 10:49 -37.99022 147.77755 2482 ft 153 kts 76°
2026-04-17 10:50 -37.98680 147.79036 2485 ft 153 kts 75°
2026-04-17 10:50 -37.98342 147.80310 2484 ft 153 kts 76°
2026-04-17 10:50 -37.98004 147.81588 2487 ft 152 kts 76°
2026-04-17 10:50 -37.97666 147.82863 2483 ft 154 kts 76°
2026-04-17 10:51 -37.97322 147.84153 2484 ft 155 kts 76°
2026-04-17 10:51 -37.96976 147.85441 2484 ft 154 kts 76°
2026-04-17 10:51 -37.96628 147.86729 2484 ft 155 kts 76°
2026-04-17 10:51 -37.96284 147.88023 2485 ft 155 kts 75°
2026-04-17 10:52 -37.95949 147.89325 2484 ft 156 kts 76°
2026-04-17 10:52 -37.95617 147.90624 2484 ft 154 kts 76°
2026-04-17 10:52 -37.95277 147.91904 2482 ft 154 kts 76°
2026-04-17 10:52 -37.94928 147.93193 2486 ft 156 kts 76°
2026-04-17 10:53 -37.94580 147.94518 2482 ft 161 kts 76°
2026-04-17 10:53 -37.94247 147.95845 2483 ft 154 kts 75°
2026-04-17 10:53 -37.93929 147.97133 2479 ft 153 kts 76°
2026-04-17 10:53 -37.93615 147.98426 2480 ft 154 kts 76°
2026-04-17 10:54 -37.93304 147.99724 2478 ft 155 kts 76°
2026-04-17 10:54 -37.92986 148.01027 2480 ft 155 kts 76°
2026-04-17 10:54 -37.92774 148.01889 2481 ft 155 kts 76°
2026-04-17 10:54 -37.92456 148.03188 2480 ft 154 kts 76°
2026-04-17 10:55 -37.92039 148.04918 2473 ft 153 kts 76°
2026-04-17 10:55 -37.91839 148.05774 2472 ft 153 kts 76°
2026-04-17 10:55 -37.91536 148.07064 2472 ft 153 kts 76°
2026-04-17 10:55 -37.91228 148.08360 2471 ft 155 kts 76°
2026-04-17 10:56 -37.90911 148.09667 2481 ft 155 kts 76°
2026-04-17 10:56 -37.90591 148.10970 2483 ft 154 kts 76°
2026-04-17 10:56 -37.90280 148.12262 2481 ft 153 kts 76°
2026-04-17 10:56 -37.89977 148.13551 2481 ft 153 kts 76°
2026-04-17 10:57 -37.89674 148.14845 2472 ft 153 kts 76°
2026-04-17 10:57 -37.89367 148.16136 2473 ft 153 kts 76°
2026-04-17 10:57 -37.89052 148.17426 2473 ft 153 kts 75°
2026-04-17 10:57 -37.88748 148.18719 2473 ft 153 kts 76°
2026-04-17 10:58 -37.88446 148.20010 2472 ft 153 kts 76°
2026-04-17 10:58 -37.88135 148.21313 2479 ft 157 kts 77°
2026-04-17 10:58 -37.87799 148.22636 2477 ft 158 kts 76°
2026-04-17 10:58 -37.87458 148.23963 2477 ft 158 kts 75°
2026-04-17 10:59 -37.87128 148.25288 2480 ft 158 kts 76°
2026-04-17 10:59 -37.86805 148.26611 2471 ft 158 kts 76°
2026-04-17 10:59 -37.86474 148.27948 2470 ft 160 kts 76°
2026-04-17 10:59 -37.86138 148.29274 2475 ft 156 kts 76°
2026-04-17 11:00 -37.85805 148.30581 2470 ft 157 kts 76°
2026-04-17 11:00 -37.85466 148.31908 2467 ft 159 kts 75°
2026-04-17 11:00 -37.85144 148.33216 2471 ft 154 kts 76°
2026-04-17 11:00 -37.84833 148.34516 2473 ft 154 kts 76°
2026-04-17 11:01 -37.84524 148.35820 2473 ft 156 kts 76°
2026-04-17 11:01 -37.84216 148.37127 2467 ft 154 kts 76°
2026-04-17 11:01 -37.83903 148.38426 2464 ft 155 kts 76°
2026-04-17 11:01 -37.83588 148.39731 2471 ft 155 kts 76°
2026-04-17 11:02 -37.83265 148.41039 2471 ft 156 kts 76°
2026-04-17 11:02 -37.82948 148.42346 2471 ft 155 kts 76°
2026-04-17 11:02 -37.82638 148.43649 2470 ft 155 kts 76°
2026-04-17 11:02 -37.82331 148.44957 2469 ft 155 kts 76°
2026-04-17 11:03 -37.82067 148.46282 2469 ft 155 kts 83°
2026-04-17 11:03 -37.81876 148.47618 2471 ft 154 kts 87°
2026-04-17 11:03 -37.81722 148.48967 2470 ft 157 kts 88°
2026-04-17 11:03 -37.81580 148.50326 2470 ft 154 kts 88°
2026-04-17 11:04 -37.81439 148.51679 2464 ft 157 kts 88°
2026-04-17 11:04 -37.81297 148.53050 2467 ft 157 kts 88°
2026-04-17 11:04 -37.81143 148.54413 2467 ft 156 kts 88°
2026-04-17 11:04 -37.80987 148.55773 2465 ft 156 kts 87°
2026-04-17 11:05 -37.80838 148.57128 2468 ft 156 kts 88°
2026-04-17 11:05 -37.80686 148.58485 2469 ft 156 kts 88°
2026-04-17 11:05 -37.80537 148.59859 2462 ft 158 kts 87°
2026-04-17 11:05 -37.80421 148.61221 2462 ft 155 kts 92°
2026-04-17 11:06 -37.80352 148.62569 2462 ft 153 kts 94°
2026-04-17 11:06 -37.80294 148.63925 2461 ft 156 kts 94°
2026-04-17 11:06 -37.80241 148.65295 2461 ft 157 kts 94°
2026-04-17 11:06 -37.80183 148.66672 2465 ft 155 kts 94°
2026-04-17 11:07 -37.80125 148.68035 2464 ft 155 kts 94°
2026-04-17 11:07 -37.80072 148.69387 2462 ft 154 kts 94°
2026-04-17 11:07 -37.80018 148.70748 2453 ft 155 kts 94°
2026-04-17 11:07 -37.79966 148.72115 2453 ft 156 kts 95°
2026-04-17 11:08 -37.79910 148.73489 2453 ft 156 kts 94°
2026-04-17 11:08 -37.79859 148.74863 2454 ft 156 kts 94°
2026-04-17 11:08 -37.79818 148.76228 2462 ft 157 kts 96°
2026-04-17 11:08 -37.79764 148.77613 2461 ft 157 kts 95°
2026-04-17 11:09 -37.79703 148.79005 2458 ft 159 kts 94°
2026-04-17 11:09 -37.79645 148.80389 2456 ft 157 kts 95°
2026-04-17 11:09 -37.79593 148.81766 2448 ft 155 kts 94°
2026-04-17 11:10 -37.79514 148.84508 2453 ft 158 kts 94°
2026-04-17 11:10 -37.79474 148.85898 2454 ft 158 kts 94°
2026-04-17 11:10 -37.79434 148.87273 2454 ft 155 kts 94°
2026-04-17 11:10 -37.79394 148.88638 2453 ft 156 kts 94°
2026-04-17 11:11 -37.79357 148.90007 2451 ft 156 kts 94°
2026-04-17 11:11 -37.79317 148.91376 2452 ft 155 kts 94°
2026-04-17 11:11 -37.79271 148.92739 2442 ft 156 kts 94°
2026-04-17 11:11 -37.79223 148.94119 2442 ft 158 kts 94°
2026-04-17 11:12 -37.79183 148.95509 2446 ft 158 kts 94°
2026-04-17 11:12 -37.79149 148.96897 2447 ft 158 kts 95°
2026-04-17 11:12 -37.79104 148.98280 2446 ft 158 kts 94°
2026-04-17 11:12 -37.79054 148.99663 2446 ft 157 kts 94°
2026-04-17 11:13 -37.79005 149.01031 2443 ft 155 kts 94°
2026-04-17 11:13 -37.78952 149.02398 2442 ft 156 kts 94°
2026-04-17 11:13 -37.78897 149.03762 2443 ft 155 kts 94°
2026-04-17 11:13 -37.78849 149.05132 2443 ft 157 kts 94°
2026-04-17 11:14 -37.78793 149.06512 2448 ft 158 kts 94°
2026-04-17 11:14 -37.78738 149.07905 2445 ft 159 kts 95°
2026-04-17 11:14 -37.78671 149.09307 2443 ft 160 kts 94°
2026-04-17 11:14 -37.78598 149.10708 2444 ft 159 kts 94°
2026-04-17 11:15 -37.78527 149.12107 2441 ft 160 kts 94°
2026-04-17 11:15 -37.78455 149.13504 2441 ft 158 kts 94°
2026-04-17 11:15 -37.78386 149.14889 2441 ft 157 kts 94°
2026-04-17 11:15 -37.78328 149.16269 2440 ft 157 kts 94°
2026-04-17 11:16 -37.78272 149.17662 2440 ft 160 kts 94°
2026-04-17 11:16 -37.78217 149.19069 2440 ft 160 kts 94°
2026-04-17 11:16 -37.78163 149.20473 2441 ft 160 kts 94°
2026-04-17 11:16 -37.78109 149.21874 2440 ft 160 kts 94°
2026-04-17 11:17 -37.78051 149.23278 2442 ft 160 kts 94°
2026-04-17 11:17 -37.77989 149.24675 2445 ft 158 kts 94°
2026-04-17 11:17 -37.77925 149.26057 2445 ft 157 kts 94°
2026-04-17 11:17 -37.77858 149.27429 2430 ft 157 kts 94°
2026-04-17 11:18 -37.77792 149.28800 2425 ft 156 kts 95°
2026-04-17 11:18 -37.77730 149.30172 2430 ft 157 kts 94°
2026-04-17 11:18 -37.77672 149.31554 2440 ft 158 kts 94°
2026-04-17 11:18 -37.77615 149.32951 2436 ft 161 kts 94°
2026-04-17 11:19 -37.77560 149.34356 2436 ft 159 kts 94°
2026-04-17 11:19 -37.77504 149.35747 2435 ft 159 kts 94°
2026-04-17 11:19 -37.77453 149.37144 2436 ft 159 kts 94°
2026-04-17 11:19 -37.77405 149.38543 2428 ft 159 kts 94°
2026-04-17 11:20 -37.77358 149.39942 2426 ft 159 kts 95°
2026-04-17 11:20 -37.77302 149.41325 2427 ft 157 kts 94°
2026-04-17 11:20 -37.77241 149.42701 2427 ft 157 kts 94°
2026-04-17 11:20 -37.77185 149.44078 2422 ft 157 kts 94°
2026-04-17 11:21 -37.77136 149.45460 2424 ft 157 kts 94°
2026-04-17 11:21 -37.77093 149.46841 2425 ft 158 kts 94°
2026-04-17 11:21 -37.76963 149.48210 2428 ft 160 kts 81°
2026-04-17 11:21 -37.76724 149.49584 2416 ft 159 kts 79°
2026-04-17 11:22 -37.76477 149.50951 2421 ft 160 kts 79°
2026-04-17 11:22 -37.76221 149.52314 2420 ft 159 kts 80°
2026-04-17 11:22 -37.75954 149.53682 2420 ft 162 kts 79°
2026-04-17 11:22 -37.75685 149.55053 2423 ft 159 kts 79°
2026-04-17 11:23 -37.75309 149.56362 2421 ft 159 kts 66°
2026-04-17 11:23 -37.74826 149.57619 2422 ft 159 kts 63°
2026-04-17 11:23 -37.74337 149.58871 2418 ft 160 kts 63°
2026-04-17 11:23 -37.73848 149.60147 2427 ft 162 kts 63°
2026-04-17 11:24 -37.73348 149.61431 2424 ft 164 kts 64°
2026-04-17 11:24 -37.72835 149.62725 2420 ft 165 kts 64°
2026-04-17 11:24 -37.72263 149.63986 2419 ft 165 kts 58°
2026-04-17 11:24 -37.71658 149.65210 2417 ft 165 kts 57°
2026-04-17 11:25 -37.71053 149.66437 2420 ft 163 kts 57°
2026-04-17 11:25 -37.70462 149.67649 2418 ft 162 kts 57°
2026-04-17 11:25 -37.69869 149.68854 2418 ft 162 kts 58°
2026-04-17 11:25 -37.69269 149.70063 2416 ft 164 kts 57°
2026-04-17 11:26 -37.68666 149.71292 2418 ft 165 kts 57°
2026-04-17 11:26 -37.68062 149.72520 2411 ft 165 kts 57°
2026-04-17 11:26 -37.67460 149.73742 2413 ft 162 kts 57°
2026-04-17 11:26 -37.66864 149.74937 2409 ft 161 kts 57°
2026-04-17 11:27 -37.66269 149.76140 2410 ft 162 kts 57°
2026-04-17 11:27 -37.65675 149.77350 2414 ft 162 kts 57°
2026-04-17 11:27 -37.65091 149.78570 2415 ft 162 kts 57°
2026-04-17 11:27 -37.64506 149.79778 2414 ft 162 kts 53°
2026-04-17 11:28 -37.63840 149.80924 2415 ft 162 kts 49°
2026-04-17 11:28 -37.63154 149.82057 2415 ft 164 kts 49°
2026-04-17 11:28 -37.62452 149.83192 2409 ft 164 kts 49°
2026-04-17 11:28 -37.61748 149.84321 2409 ft 163 kts 48°
2026-04-17 11:29 -37.61062 149.85443 2405 ft 161 kts 48°
2026-04-17 11:29 -37.60379 149.86582 2413 ft 163 kts 49°
2026-04-17 11:29 -37.59688 149.87726 2412 ft 165 kts 49°
2026-04-17 11:29 -37.58986 149.88860 2422 ft 163 kts 49°
2026-04-17 11:30 -37.58278 149.89977 2420 ft 163 kts 49°
2026-04-17 11:30 -37.57564 149.91088 2418 ft 164 kts 48°
2026-04-17 11:30 -37.56847 149.92203 2416 ft 164 kts 49°
2026-04-17 11:30 -37.56131 149.93318 2415 ft 164 kts 49°
2026-04-17 11:31 -37.55412 149.94434 2406 ft 164 kts 49°
2026-04-17 11:31 -37.54605 149.95438 2409 ft 162 kts 26°
2026-04-17 11:31 -37.53639 149.96115 2409 ft 158 kts 17°
2026-04-17 11:31 -37.52662 149.96736 2408 ft 155 kts 17°
2026-04-17 11:32 -37.51684 149.97275 2408 ft 151 kts
2026-04-17 11:32 -37.50683 149.97690 2399 ft 154 kts
2026-04-17 11:32 -37.49648 149.98089 2405 ft 156 kts
2026-04-17 11:32 -37.48610 149.98489 2408 ft 155 kts
2026-04-17 11:33 -37.47586 149.98903 2407 ft 154 kts
2026-04-17 11:33 -37.46559 149.99319 2408 ft 156 kts
2026-04-17 11:33 -37.45519 149.99722 2412 ft 155 kts
2026-04-17 11:33 -37.44485 150.00117 2409 ft 156 kts
2026-04-17 11:34 -37.43453 150.00514 2414 ft 154 kts
2026-04-17 11:34 -37.42422 150.00922 2413 ft 156 kts
2026-04-17 11:34 -37.41391 150.01319 2413 ft 154 kts
2026-04-17 11:34 -37.40358 150.01714 2414 ft 155 kts
2026-04-17 11:35 -37.39328 150.02115 2416 ft 156 kts
2026-04-17 11:35 -37.38288 150.02525 2417 ft 158 kts
2026-04-17 11:35 -37.37244 150.02934 2417 ft 156 kts
2026-04-17 11:35 -37.36210 150.03337 2415 ft 155 kts
2026-04-17 11:36 -37.35177 150.03738 2413 ft 157 kts
2026-04-17 11:36 -37.34481 150.04009 2416 ft 159 kts
2026-04-17 11:36 -37.33428 150.04421 2416 ft 158 kts
2026-04-17 11:36 -37.32380 150.04828 2416 ft 157 kts
2026-04-17 11:37 -37.31338 150.05225 2414 ft 158 kts
2026-04-17 11:37 -37.30287 150.05634 2418 ft 158 kts
2026-04-17 11:37 -37.29232 150.06043 2412 ft 160 kts
2026-04-17 11:37 -37.28175 150.06443 2414 ft 157 kts
2026-04-17 11:38 -37.27125 150.06837 2414 ft 158 kts
2026-04-17 11:38 -37.26078 150.07239 2412 ft 158 kts
2026-04-17 11:38 -37.25016 150.07644 2414 ft 159 kts
2026-04-17 11:38 -37.23958 150.08037 2414 ft 159 kts
2026-04-17 11:39 -37.22903 150.08427 2418 ft 157 kts
2026-04-17 11:39 -37.21855 150.08821 2416 ft 157 kts
2026-04-17 11:39 -37.20810 150.09210 2414 ft 155 kts
2026-04-17 11:39 -37.19750 150.09425 2416 ft 154 kts 353°
2026-04-17 11:40 -37.18688 150.09585 2415 ft 154 kts 352°
2026-04-17 11:40 -37.17627 150.09739 2416 ft 152 kts 353°
2026-04-17 11:40 -37.16582 150.09888 2417 ft 151 kts 352°
2026-04-17 11:40 -37.15533 150.10045 2418 ft 152 kts 352°
2026-04-17 11:41 -37.14475 150.10204 2419 ft 154 kts 352°
2026-04-17 11:41 -37.13417 150.10364 2420 ft 152 kts 353°
2026-04-17 11:41 -37.12378 150.10507 2413 ft 147 kts 353°
2026-04-17 11:41 -37.11367 150.10621 2414 ft 146 kts 352°
2026-04-17 11:42 -37.10357 150.10728 2417 ft 146 kts 353°
2026-04-17 11:42 -37.09345 150.10828 2417 ft 146 kts 352°
2026-04-17 11:42 -37.08330 150.10931 2420 ft 147 kts 352°
2026-04-17 11:42 -37.07310 150.11045 2424 ft 146 kts 352°
2026-04-17 11:43 -37.06304 150.11163 2420 ft 145 kts 352°
2026-04-17 11:43 -37.05298 150.11278 2418 ft 146 kts 353°
2026-04-17 11:43 -37.04273 150.11383 2421 ft 149 kts 352°
2026-04-17 11:43 -37.03246 150.11486 2422 ft 147 kts 353°
2026-04-17 11:44 -37.02230 150.11579 2422 ft 145 kts 352°
2026-04-17 11:44 -37.01223 150.11669 2420 ft 145 kts 352°
2026-04-17 11:44 -37.00217 150.11763 2423 ft 145 kts 352°
2026-04-17 11:44 -36.99200 150.11865 2424 ft 147 kts 353°
2026-04-17 11:45 -36.98182 150.11952 2424 ft 147 kts 352°
2026-04-17 11:45 -36.97166 150.12033 2426 ft 146 kts 352°
2026-04-17 11:45 -36.96160 150.12131 2424 ft 144 kts 352°
2026-04-17 11:45 -36.95158 150.12230 2425 ft 142 kts 349°
2026-04-17 11:46 -36.94257 150.11994 2419 ft 125 kts 318°
2026-04-17 11:46 -36.93666 150.11301 2423 ft 112 kts 290°
2026-04-17 11:46 -36.93261 150.10489 2424 ft 109 kts 285°
2026-04-17 11:46 -36.92877 150.09671 2424 ft 109 kts 285°
2026-04-17 11:47 -36.92494 150.08854 2424 ft 109 kts 285°
2026-04-17 11:47 -36.92109 150.08037 2424 ft 109 kts 285°
2026-04-17 11:47 -36.91723 150.07220 2424 ft 109 kts 285°
2026-04-17 11:47 -36.91336 150.06401 2424 ft 109 kts 285°
2026-04-17 11:48 -36.90950 150.05582 2430 ft 109 kts 285°
2026-04-17 11:48 -36.90565 150.04764 2430 ft 109 kts 285°
2026-04-17 11:48 -36.90179 150.03946 2430 ft 109 kts 285°
2026-04-17 11:48 -36.89791 150.03132 2431 ft 110 kts 287°
2026-04-17 11:49 -36.89166 150.02473 2428 ft 128 kts 319°
2026-04-17 11:49 -36.88356 150.02027 2422 ft 127 kts 324°
2026-04-17 11:49 -36.87539 150.01596 2424 ft 128 kts 324°
2026-04-17 11:49 -36.86714 150.01150 2427 ft 130 kts 324°
2026-04-17 11:50 -36.85879 150.00706 2431 ft 130 kts 324°
2026-04-17 11:50 -36.85050 150.00266 2430 ft 129 kts 324°
2026-04-17 11:50 -36.84220 149.99842 2429 ft 129 kts 324°
2026-04-17 11:50 -36.83392 149.99419 2428 ft 129 kts 324°
2026-04-17 11:51 -36.82561 149.98997 2429 ft 130 kts 325°
2026-04-17 11:51 -36.81724 149.98556 2431 ft 130 kts 324°
2026-04-17 11:51 -36.80894 149.98116 2428 ft 130 kts 324°
2026-04-17 11:51 -36.80051 149.97691 2429 ft 134 kts 331°
2026-04-17 11:52 -36.79073 149.97680 2431 ft 145 kts
2026-04-17 11:52 -36.78079 149.97929 2430 ft 146 kts
2026-04-17 11:52 -36.77088 149.98198 2430 ft 146 kts
2026-04-17 11:52 -36.76103 149.98468 2431 ft 144 kts
2026-04-17 11:53 -36.75129 149.98749 2428 ft 144 kts
2026-04-17 11:53 -36.74151 149.99025 2428 ft 145 kts
2026-04-17 11:53 -36.73161 149.99289 2430 ft 145 kts
2026-04-17 11:53 -36.72175 149.99560 2429 ft 145 kts
2026-04-17 11:54 -36.71191 149.99845 2432 ft 146 kts
2026-04-17 11:54 -36.70202 150.00123 2432 ft 145 kts
2026-04-17 11:54 -36.69212 150.00397 2433 ft 146 kts
2026-04-17 11:54 -36.68219 150.00670 2432 ft 147 kts
2026-04-17 11:55 -36.67224 150.00945 2432 ft 145 kts
2026-04-17 11:55 -36.66241 150.01225 2431 ft 145 kts
2026-04-17 11:55 -36.65257 150.01508 2431 ft 146 kts
2026-04-17 11:55 -36.64265 150.01789 2433 ft 146 kts
2026-04-17 11:56 -36.63277 150.02072 2434 ft 146 kts
2026-04-17 11:56 -36.62289 150.02370 2436 ft 146 kts
2026-04-17 11:56 -36.61309 150.02663 2434 ft 144 kts
2026-04-17 11:56 -36.60328 150.02940 2433 ft 146 kts
2026-04-17 11:57 -36.59343 150.03221 2434 ft 145 kts
2026-04-17 11:57 -36.58364 150.03515 2434 ft 144 kts
2026-04-17 11:57 -36.57391 150.03801 2436 ft 143 kts
2026-04-17 11:57 -36.56415 150.04082 2432 ft 146 kts
2026-04-17 11:58 -36.55423 150.04370 2435 ft 146 kts
2026-04-17 11:58 -36.54435 150.04655 2435 ft 146 kts
2026-04-17 11:58 -36.53442 150.04934 2436 ft 147 kts
2026-04-17 11:58 -36.52449 150.05212 2436 ft 145 kts
2026-04-17 11:59 -36.51465 150.05497 2434 ft 145 kts
2026-04-17 11:59 -36.50476 150.05782 2434 ft 146 kts
2026-04-17 11:59 -36.49487 150.06061 2432 ft 145 kts
2026-04-17 11:59 -36.48499 150.06340 2432 ft 146 kts
2026-04-17 12:00 -36.47518 150.06611 2432 ft 144 kts
2026-04-17 12:00 -36.46532 150.06857 2437 ft 144 kts
2026-04-17 12:00 -36.45556 150.07097 2438 ft 143 kts
2026-04-17 12:00 -36.44583 150.07341 2433 ft 144 kts
2026-04-17 12:01 -36.43596 150.07587 2440 ft 145 kts
2026-04-17 12:01 -36.42604 150.07818 2442 ft 145 kts
2026-04-17 12:01 -36.41620 150.08055 2432 ft 144 kts
2026-04-17 12:01 -36.40635 150.08298 2432 ft 146 kts
2026-04-17 12:02 -36.39636 150.08548 2436 ft 146 kts
2026-04-17 12:02 -36.38654 150.08795 2434 ft 143 kts
2026-04-17 12:02 -36.37673 150.09041 2433 ft 145 kts
2026-04-17 12:02 -36.36681 150.09288 2436 ft 145 kts
2026-04-17 12:03 -36.35695 150.09531 2435 ft 144 kts
2026-04-17 12:03 -36.34709 150.09770 2434 ft 145 kts
2026-04-17 12:03 -36.33725 150.10080 2438 ft 146 kts
2026-04-17 12:03 -36.32747 150.10420 2438 ft 145 kts
2026-04-17 12:04 -36.31770 150.10768 2433 ft 148 kts 10°
2026-04-17 12:04 -36.30785 150.11119 2439 ft 146 kts
2026-04-17 12:04 -36.29821 150.11467 2431 ft 144 kts 10°
2026-04-17 12:04 -36.28851 150.11821 2435 ft 146 kts
2026-04-17 12:05 -36.27887 150.12173 2437 ft 140 kts 10°
2026-04-17 12:05 -36.26979 150.12477 2431 ft 134 kts 10°
2026-04-17 12:05 -36.26070 150.12773 2435 ft 135 kts 10°
2026-04-17 12:05 -36.25159 150.13069 2440 ft 135 kts
2026-04-17 12:06 -36.24255 150.13363 2432 ft 134 kts 10°
2026-04-17 12:06 -36.23348 150.13658 2439 ft 135 kts
2026-04-17 12:06 -36.22444 150.13955 2435 ft 134 kts 10°
2026-04-17 12:06 -36.21535 150.14250 2437 ft 134 kts
2026-04-17 12:07 -36.20630 150.14545 2431 ft 135 kts 10°
2026-04-17 12:07 -36.19721 150.14841 2433 ft 135 kts 10°
2026-04-17 12:07 -36.18808 150.15139 2435 ft 135 kts 10°
2026-04-17 12:07 -36.17901 150.15434 2434 ft 135 kts 10°
2026-04-17 12:08 -36.16992 150.15726 2435 ft 135 kts 10°
2026-04-17 12:08 -36.16082 150.16021 2438 ft 135 kts 10°
2026-04-17 12:08 -36.15173 150.16315 2437 ft 135 kts 10°
2026-04-17 12:08 -36.14265 150.16608 2437 ft 135 kts 10°
2026-04-17 12:09 -36.13352 150.16901 2435 ft 135 kts 10°
2026-04-17 12:09 -36.12445 150.17196 2434 ft 135 kts 10°
2026-04-17 12:09 -36.11518 150.17497 2426 ft 145 kts
2026-04-17 12:09 -36.10517 150.17839 2437 ft 150 kts 10°
2026-04-17 12:10 -36.09517 150.18176 2435 ft 148 kts 10°
2026-04-17 12:10 -36.08518 150.18517 2432 ft 149 kts
2026-04-17 12:10 -36.07532 150.18842 2433 ft 145 kts 10°
2026-04-17 12:10 -36.06564 150.19150 2431 ft 147 kts
2026-04-17 12:11 -36.05566 150.19406 2436 ft 145 kts
2026-04-17 12:11 -36.04579 150.19626 2430 ft 145 kts
2026-04-17 12:11 -36.03587 150.19852 2432 ft 144 kts
2026-04-17 12:12 -36.01608 150.20277 2431 ft 145 kts
2026-04-17 12:12 -36.00620 150.20503 2431 ft 144 kts
2026-04-17 12:12 -35.99635 150.20720 2430 ft 144 kts
2026-04-17 12:12 -35.98641 150.20933 2433 ft 145 kts
2026-04-17 12:13 -35.97647 150.21151 2431 ft 146 kts
2026-04-17 12:13 -35.96646 150.21378 2432 ft 146 kts
2026-04-17 12:13 -35.95652 150.21615 2432 ft 145 kts
2026-04-17 12:13 -35.94660 150.21843 2432 ft 145 kts
2026-04-17 12:14 -35.93668 150.22078 2432 ft 145 kts
2026-04-17 12:14 -35.92676 150.22318 2432 ft 145 kts
2026-04-17 12:14 -35.91691 150.22541 2434 ft 144 kts
2026-04-17 12:14 -35.90703 150.22769 2433 ft 145 kts
2026-04-17 12:15 -35.89710 150.23004 2438 ft 145 kts
2026-04-17 12:15 -35.88718 150.23233 2436 ft 146 kts
2026-04-17 12:15 -35.87717 150.23467 2436 ft 146 kts
2026-04-17 12:15 -35.86727 150.23692 2438 ft 144 kts
2026-04-17 12:16 -35.85745 150.23906 2436 ft 142 kts
2026-04-17 12:16 -35.84774 150.24116 2433 ft 142 kts
2026-04-17 12:16 -35.83795 150.24324 2435 ft 142 kts
2026-04-17 12:16 -35.82821 150.24526 2434 ft 142 kts
2026-04-17 12:17 -35.81848 150.24719 2436 ft 141 kts
2026-04-17 12:17 -35.81190 150.24857 2436 ft 142 kts
2026-04-17 12:17 -35.80219 150.25064 2435 ft 141 kts
2026-04-17 12:17 -35.79256 150.25263 2434 ft 140 kts
2026-04-17 12:18 -35.78286 150.25469 2433 ft 142 kts
2026-04-17 12:18 -35.77323 150.25682 2435 ft 142 kts
2026-04-17 12:18 -35.76345 150.25901 2433 ft 143 kts
2026-04-17 12:18 -35.75363 150.26118 2439 ft 143 kts
2026-04-17 12:19 -35.74394 150.26483 2434 ft 144 kts 15°
2026-04-17 12:19 -35.73453 150.26897 2434 ft 144 kts 16°
2026-04-17 12:19 -35.72505 150.27305 2436 ft 144 kts 15°
2026-04-17 12:19 -35.71569 150.27717 2434 ft 143 kts 15°
2026-04-17 12:20 -35.70631 150.28131 2434 ft 144 kts 16°
2026-04-17 12:20 -35.69684 150.28532 2435 ft 143 kts 15°
2026-04-17 12:20 -35.68749 150.28939 2428 ft 143 kts 16°
2026-04-17 12:20 -35.67810 150.29341 2432 ft 142 kts 15°
2026-04-17 12:21 -35.66892 150.29724 2432 ft 136 kts 16°
2026-04-17 12:21 -35.65989 150.30098 2431 ft 138 kts 16°
2026-04-17 12:21 -35.65077 150.30474 2431 ft 138 kts 16°
2026-04-17 12:21 -35.64165 150.30849 2432 ft 139 kts 16°
2026-04-17 12:22 -35.63248 150.31224 2437 ft 138 kts 15°
2026-04-17 12:22 -35.62352 150.31636 2430 ft 138 kts 22°
2026-04-17 12:22 -35.61477 150.32151 2431 ft 139 kts 25°
2026-04-17 12:22 -35.60612 150.32668 2431 ft 138 kts 25°
2026-04-17 12:23 -35.59745 150.33193 2432 ft 139 kts 25°
2026-04-17 12:23 -35.58881 150.33720 2436 ft 139 kts 25°
2026-04-17 12:23 -35.58009 150.34245 2433 ft 140 kts 24°
2026-04-17 12:23 -35.57147 150.34763 2428 ft 137 kts 25°
2026-04-17 12:24 -35.56278 150.35291 2433 ft 140 kts 25°
2026-04-17 12:24 -35.55415 150.35813 2432 ft 138 kts 24°
2026-04-17 12:24 -35.54552 150.36339 2430 ft 139 kts 25°
2026-04-17 12:24 -35.53690 150.36866 2436 ft 138 kts 24°
2026-04-17 12:25 -35.52834 150.37390 2431 ft 138 kts 25°
2026-04-17 12:25 -35.51970 150.37914 2440 ft 139 kts 24°
2026-04-17 12:25 -35.51108 150.38441 2442 ft 138 kts 24°
2026-04-17 12:25 -35.50250 150.38967 2437 ft 138 kts 25°
2026-04-17 12:26 -35.49389 150.39495 2435 ft 138 kts 25°
2026-04-17 12:26 -35.48530 150.40020 2431 ft 137 kts 26°
2026-04-17 12:26 -35.47679 150.40520 2425 ft 135 kts 25°
2026-04-17 12:26 -35.46833 150.41013 2427 ft 135 kts 25°
2026-04-17 12:27 -35.45985 150.41512 2429 ft 135 kts 25°
2026-04-17 12:27 -35.45136 150.42004 2431 ft 134 kts 25°
2026-04-17 12:27 -35.44290 150.42491 2427 ft 134 kts 25°
2026-04-17 12:27 -35.43442 150.42981 2431 ft 134 kts 25°
2026-04-17 12:28 -35.42610 150.43461 2431 ft 135 kts 25°
2026-04-17 12:28 -35.41755 150.43951 2432 ft 136 kts 25°
2026-04-17 12:28 -35.40900 150.44436 2436 ft 136 kts 24°
2026-04-17 12:28 -35.40047 150.44915 2432 ft 134 kts 24°
2026-04-17 12:29 -35.39200 150.45400 2425 ft 135 kts 25°
2026-04-17 12:29 -35.38348 150.45897 2431 ft 136 kts 25°
2026-04-17 12:29 -35.37478 150.46386 2428 ft 142 kts 25°
2026-04-17 12:29 -35.36542 150.46919 2437 ft 151 kts 24°
2026-04-17 12:30 -35.35582 150.47468 2433 ft 150 kts 25°
2026-04-17 12:30 -35.34640 150.48007 2434 ft 148 kts 25°
2026-04-17 12:30 -35.33726 150.48522 2428 ft 147 kts 25°
2026-04-17 12:30 -35.32770 150.49065 2432 ft 151 kts 24°
2026-04-17 12:31 -35.31848 150.49603 2434 ft 147 kts 24°
2026-04-17 12:31 -35.30922 150.50149 2430 ft 150 kts 25°
2026-04-17 12:31 -35.29970 150.50707 2437 ft 150 kts 24°
2026-04-17 12:31 -35.29047 150.51236 2434 ft 143 kts 26°
2026-04-17 12:32 -35.28130 150.51727 2432 ft 144 kts 25°
2026-04-17 12:32 -35.27214 150.52216 2428 ft 143 kts 25°
2026-04-17 12:32 -35.26293 150.52698 2430 ft 144 kts 25°
2026-04-17 12:32 -35.25377 150.53184 2430 ft 143 kts 25°
2026-04-17 12:33 -35.24466 150.53675 2428 ft 143 kts 25°
2026-04-17 12:33 -35.23547 150.54158 2423 ft 145 kts 25°
2026-04-17 12:33 -35.22625 150.54640 2427 ft 144 kts 25°
2026-04-17 12:33 -35.21705 150.55120 2424 ft 145 kts 25°
2026-04-17 12:34 -35.20781 150.55611 2430 ft 144 kts 25°
2026-04-17 12:34 -35.19857 150.56098 2430 ft 145 kts 25°
2026-04-17 12:34 -35.18929 150.56586 2428 ft 145 kts 24°
2026-04-17 12:34 -35.18005 150.57078 2427 ft 145 kts 25°
2026-04-17 12:35 -35.17078 150.57570 2427 ft 144 kts 25°
2026-04-17 12:35 -35.16159 150.58063 2426 ft 144 kts 25°
2026-04-17 12:35 -35.15243 150.58552 2425 ft 144 kts 25°
2026-04-17 12:35 -35.14320 150.59042 2427 ft 145 kts 24°
2026-04-17 12:37 -35.07724 150.61817 2431 ft 144 kts
2026-04-17 12:37 -35.06726 150.61907 2430 ft 144 kts
2026-04-17 12:38 -35.05726 150.61943 2431 ft 143 kts 357°
2026-04-17 12:38 -35.04764 150.61681 2434 ft 141 kts 338°
2026-04-17 12:38 -35.03838 150.61296 2431 ft 140 kts 332°
2026-04-17 12:38 -35.02953 150.60797 2431 ft 140 kts 327°
2026-04-17 12:39 -35.02109 150.60197 2435 ft 140 kts 322°
2026-04-17 12:39 -35.01286 150.59581 2371 ft 137 kts 321°
2026-04-17 12:39 -35.00500 150.58958 1998 ft 132 kts 320°
2026-04-17 12:39 -34.99756 150.58306 1613 ft 130 kts 316°
2026-04-17 12:40 -34.99066 150.57633 1254 ft 125 kts 314°
2026-04-17 12:40 -34.98410 150.56937 1069 ft 125 kts 314°
2026-04-17 12:40 -34.97761 150.56230 993 ft 124 kts 314°
2026-04-17 12:40 -34.97048 150.55692 1035 ft 119 kts 339°
2026-04-17 12:41 -34.96271 150.55428 1007 ft 114 kts 342°
2026-04-17 12:41 -34.95581 150.55161 771 ft 86 kts 338°
2026-04-17 12:41 -34.95156 150.54967 594 ft 46 kts 339°
2026-04-17 12:41 -34.94955 150.54870 534 ft 18 kts 343°
2026-04-17 12:42 -34.94867 150.54835 458 ft 18 kts 343°
2026-04-17 12:42 -34.94744 150.54789 414 ft 16 kts 343°
2026-04-17 12:42 -34.94675 150.54752 371 ft 4 kts 341°
2026-04-17 12:42 -34.94673 150.54748 361 ft 1 kts 338°
2026-04-17 12:43 -34.94672 150.54746 357 ft 0 kts 333°